Regional Weather Roundup
Issued by NWS

Home | Current Version | Previous Version | Text Only | Print | Product List | Glossary On
Versions: 1 2 3 4 5 6 7 8 9 10 11 12 13 14 15 16 17 18 19 20 21 22 23 24 25 26 27 28 29 30 31 32 33 34 35 36 37 38 39 40 41 42 43 44 45 46 47 48 49 50
000
ASUS45 KBOU 281007
RWRCO

WEATHER ROUNDUP FOR COLORADO
NATIONAL WEATHER SERVICE DENVER/BOULDER CO
400 AM MDT TUE APR 28 2015

NOTE: "FAIR" INDICATES FEW OR NO CLOUDS BELOW 12000 FEET WITH NO
SIGNIFICANT WEATHER AND/OR OBSTRUCTIONS TO VISIBILITY.

COZ001>005-013-030-031-281100-
...NORTHWEST COLORADO...

CITY           SKY/WX    TMP DP  RH WIND       PRES   REMARKS
CRAIG          CLEAR     33  30  88 SW3       30.30R
HAYDEN         MOCLDY    36  30  80 CALM      30.29R
MEEKER         CLEAR     34  31  88 CALM      30.29R
MOUNT WERNER   NOT AVBL
STEAMBOAT SPGS PTCLDY    35  33  92 NW5       30.30R WCI  31
WALDEN         CLOUDY    28  27  93 SE3       30.33S
$$

COZ006>008-011-281100-
...WEST CENTRAL VALLEYS...

CITY           SKY/WX    TMP DP  RH WIND       PRES   REMARKS
GRAND JUNCTION PTCLDY    46  40  79 E3        30.21R
MONTROSE       CLOUDY    46  39  76 CALM      30.26R
EAGLE          CLEAR     39  37  93 CALM      30.31R
RIFLE          PTCLDY    41  37  86 CALM      30.25R
DELTA          CLOUDY    50  43  77 MISG      30.24R
NUCLA          MOCLDY    41  36  81 SE5       30.27R
$$

COZ017>023-064>068-281100-
...SOUTHWEST COLORADO...

CITY           SKY/WX    TMP DP  RH WIND       PRES   REMARKS
DURANGO        CLOUDY    39  37  92 NE6       30.26R
CORTEZ         PTCLDY    42  37  82 S6        30.24R
PAGOSA SPRINGS MOCLDY    38  25  60 NE7       30.28R
TELLURIDE      CLOUDY    35  32  90 CALM      30.33R
WOLF CREEK PAS NOT AVBL
$$

COZ009-010-012-014-032>034-037-058>063-281100-
...CENTRAL COLORADO...

CITY           SKY/WX    TMP DP  RH WIND       PRES   REMARKS
ASPEN          PTCLDY    31  28  89 S5        30.30R WCI  26
BUENA VISTA    CLOUDY    34  31  88 SE5       30.38R WCI  30
COPPER MTN     PTCLDY    27  16  63 S6        30.39R WCI  20
BERTHOUD PASS  HAZE      16   9  73 CALM      30.41S VSB 1/2
COTTONWOOD PAS CLOUDY    32  28  86 CALM      30.39R
GUNNISON       CLEAR     30  25  80 N8        30.36R WCI  23
KREMMLING      CLEAR     30  27  86 CALM      30.34R
LEADVILLE      CLOUDY    25  24  96 CALM      30.37R
MONARCH PASS   CLOUDY    21  19  93 MISG      30.47S
SALIDA         CLOUDY    37  33  85 CALM      30.45R
SUNLIGHT       CLOUDY    32  32 100 NE3       30.40S FOG
WILKERSON PASS CLOUDY    23  21  93 N3        30.42S
$$

COZ069>075-281100-
...SAN LUIS VALLEY/SANGRE DE CRISTO MOUNTAINS...

CITY           SKY/WX    TMP DP  RH WIND       PRES   REMARKS
ALAMOSA        CLEAR     27  23  85 W7        30.33R WCI  19
LA VETA PASS   FOG       27  23  86 MISG      30.36S VSB 1/2
SAGUACHE       CLEAR     28  25  86 NW8       30.35R WCI  20
$$

COZ035-036-038>040-281100-
...NORTHERN COLORADO FRONT RANGE...

CITY           SKY/WX    TMP DP  RH WIND       PRES   REMARKS
DENVER INTL AP CLOUDY    43  38  82 CALM      30.35S
DMNS CITY PARK   N/A     40  38  93 SE2       30.35S
AURORA         NOT AVBL
FRONT RANGE AP CLOUDY    43  41  93 CALM      30.36S FOG
ERIE MUNI ARPT CLOUDY    40  38  93 CALM      30.35S
BOULDER MUN AP CLOUDY    43  39  87 CALM      30.35S
CENTENNIAL     CLOUDY    40  38  93 CALM      30.35S
BROOMFIELD     CLOUDY    41  37  87 CALM      30.35S
FORT COLLINS   PTCLDY    43  37  81 CALM      30.37R
LONGMONT       CLOUDY    43  39  86 CALM      30.37R
$$

COZ041-046-047-076>085-087-088-281100-
...PIKES PEAK/PALMER DIVIDE AND SOUTHERN FOOTHILLS...

CITY           SKY/WX    TMP DP  RH WIND       PRES   REMARKS
COLO. SPRINGS  CLOUDY    41  32  70 N7        30.36R
A. F. ACADEMY  CLOUDY    37  34  88 N6        30.35S
ELLICOTT       MOCLDY   N/A N/A N/A N7        30.33S
FALCON         CLOUDY    38  31  77 N6        30.37S
FORT CARSON    CLOUDY    40  32  71 NW8       30.34R
LIMON          CLOUDY    42  39  89 N12       30.33S
MONUMENT HILL  CLOUDY    34  32  93 W5        30.35S WCI  30
TRINIDAD       CLOUDY    38  35  89 W8        30.33R
$$

COZ042>045-048>051-090-091-281100-
...NORTHEAST COLORADO...

CITY           SKY/WX    TMP DP  RH WIND       PRES   REMARKS
GREELEY ARPT   MOCLDY    43  36  75 CALM      30.36S
AKRON          CLOUDY    43  41  93 NE8       30.32S
BURLINGTON     MOCLDY    43  39  86 N9        30.29R
WRAY           CLOUDY    46  41  81 N3        30.31R
STERLING       CLOUDY    45  43  93 N5        30.33R
HOLYOKE        CLOUDY    46  41  81 N5        30.32S
FORT MORGAN    CLOUDY    44  41  87 NE7       30.34S
$$

COZ086-089-092>099-281100-
...SOUTHEAST COLORADO...

CITY           SKY/WX    TMP DP  RH WIND       PRES   REMARKS
PUEBLO         CLOUDY    42  37  82 W12       30.33R
LA JUNTA       MOCLDY    46  39  76 N13       30.29S
LAMAR          CLOUDY    40  37  89 N3        30.26S
SPRINGFIELD      N/A     36  32  85 NW12      30.26R
$$



USA.gov is the U.S. government's official web portal to all federal, state and local government web resources and services.